Simultaneous Nadir Overpasses (SNOs) Predictions

Prediction of SNOs between GOES-17 and TERRA Satellite Orbit:

Table of predicted SNOs for the next 14.0 days since TLE Epoch: 3/26/2022
Index Date Time (GOES-17) GOES-17 Lat,Lon TERRA Lat,Lon Distance(km) Time Diff (sec)
1 03/26/2022 07:19:27 -0.03,-137.19 0.45,-134.88 263.23 80
2 03/26/2022 19:43:21 0.04,-137.20 0.61,-140.04 321.99 80
3 03/28/2022 19:31:05 0.03,-137.21 0.01,-137.08 15.15 80
4 03/30/2022 19:18:50 0.03,-137.22 -0.61,-134.11 352.32 80
5 03/31/2022 07:40:13 -0.03,-137.21 -0.44,-139.32 238.94 80
6 04/02/2022 07:25:17 -0.03,-137.21 0.18,-136.36 98.10 80
7 04/02/2022 19:46:31 0.03,-137.22 0.93,-141.51 487.39 80
8 04/04/2022 07:13:00 -0.03,-137.21 0.75,-133.38 434.45 80
9 04/04/2022 19:34:15 0.03,-137.22 0.30,-138.55 151.19 80
10 04/06/2022 19:24:39 0.03,-137.20 -0.34,-135.59 184.26 80
11 04/07/2022 07:46:02 -0.02,-137.19 -0.76,-140.78 407.45 80
